FENGYUN 1C DEB

Satellite information

Favourite Embed

Satellite Type and Status

DEBRISIN ORBIT

Key statistics

Satellite FENGYUN 1C DEB at a glance.

Uptime

9715

Days in orbit

Revolutions

≈ 14.3

Per day

Orbit

SSO

Sun Synchronous Orbit

Inclination

99.4

Latest

Satellite identification and parameters

Extended collection of information and parameters for FENGYUN 1C DEB.

Object identification

Identified? True

Debris? True

Object name: FENGYUN 1C DEB

International designator: 1999-025RV

Object number (NORAD): 30116

Object ID (CCSDS): 30116

Country: PEOPLES REPUBLIC OF CHINA (PRC)

Current information (Y/N): Y

RCS size: SMALL

Orbital parameters

Period: 100.749 minutes

Inclination: 99.3972 deg

SMA: 7172.235 km

Apoapsis: 808.817 km

Periapsis: 779.383 km

RAAN: 58.5123 deg

Eccentricy: 0.00205193

Argument of periapsis: 340.1385 deg

Mean anomaly: 79.1687 deg

Mean motion: 14.2929202 rev/day

Mean motion (dot): 0.00005599 rev/day2

B* drag term: 0.0022137656 1/REarth

Two-line elements (TLE)

Creation date: Dec. 14, 2025, 3:07 a.m.

Reference frame: TEME

Reference center: EARTH

Epoch: Dec. 13, 2025, 10:14 a.m. UTC

TLE line 0: 0 FENGYUN 1C DEB

TLE line 1: 1 30116U 99025RV 25347.42691478 .00005599 00000-0 22138-2 0 9994

TLE line 2: 2 30116 99.3972 58.5123 0020519 340.1385 79.1687 14.29292020975197

Live tracking on map

Real-time ground track for satellite FENGYUN 1C DEB.

In-orbit conjunctions

A list of the most updated potential collisions computed for object FENGYUN 1C DEB.

Target Orbit TCA Probability of collision Miss distance Type
SL-8 R/B LEO 2025-09-29 04:21:14 0.00441233 33.0 (m) ROCKET BODY
COSMOS 1867 COOLANT LEO 2025-05-31 18:59:36 0.0001684454 65.0 (m) DEBRIS
FENGYUN 1C DEB SSO 2024-09-24 18:07:21 0.0002075971 759.0 (m) DEBRIS

Associated space launch

Chinese polar orbiting meteorological satellite

FENGYUN 1C DEB was lifted into orbit during the mission ‘Long March 4B | Feng Yun 1C’, on board a Long March 4B space rocket.

The launch took place on May 10, 1999, 1:33 a.m. from Launch Complex 7.

For more information about the launch, click the button.

Launch to space Long March 4B | Feng Yun 1C
Long March 4B | Feng Yun 1C

Agency: N/A

Status: Launch Successful

Launch date: May 10, 1999, 1:33 a.m. UTC

Rocket: Long March 4B

Launch pad: Launch Complex 7

Location: Taiyuan Satellite Launch Center, People's Republic of China

...

Latest news about this satellite

There are no fresh news available about this satellite. Check back as we update our databases every day.


Newsletter sign-up

Weekly statistics, charts and insights to help you stay on top of the space industry.